星链-36166(STARLINK-36166)

导读

STARLINK-36166是美国SpaceX公司星链(Starlink)项目的卫星,于2025年12月14日发射。星链项目旨在构建全球卫星互联网星座,为全球范围尤其是偏远地区提供高速低延迟的互联网接入服务。该卫星加入已在轨的庞大星链星座,进一步完善星座全球覆盖能力,推动全球互联网络基础设施建设。

基本信息
目录编号:
67084
目录名称:
STARLINK-36166
国际标识:
2025-298K
轨道中心:
EARTH
卫星名称:
星链-36166
卫星全名:
星链-36166(STARLINK-36166)
卫星状态:
在轨 (已飞行265 天)
发射日期:
2025-12-14 UTC
国别 :
美国 (US)
星等 :
--
轨道信息
数据来源 国际轨道数据
星历时间: 2026-09-04T20:57:23+0800
12小时前
查看轨道信息
半长轴: 6950.252km
偏心率: 0.0002446
轨道倾角: 70.003°
近地点辐角 275.670°
升交点赤经 283.664°
平近点角 84.418°
近地点: 570.414km
远地点: 573.816km
周期: 96.108分钟
每日圈数: 14.983112
详细信息
固有亮度:
5
最大亮度:
2.5
卫星平台:
Starlink V1.0
覆盖范围:
全球
运营商:
太空探索技术公司
运营商所在国:
美国
制造商(研发单位):
太空探索技术公司
制造商所在国:
美国
使用方式:
暂无
卫星简介
Starlink 计划是 SpaceX 推出的全球卫星互联网项目,通过发射低轨道卫星,为全球尤其是偏远地区提供高速、低延迟的互联网服务。自 2019 年起,Starlink 已部署数千颗卫星,旨在缩小全球数字鸿沟,推动互联网普及。该项目还为军事、航空等行业提供通信支持,带来广泛经济效益。
2D轨道图
3D轨道图
轨道高度分析图
轨道倾角分析图
轨道综合分析图
查看轨道综合分析图
交会数据列表
事件ID 空间交会对象 最接近时刻(TCA) 交会距离 交会风险概率(CRP) 交会风险指数(CRI) 操作
CDM_260907-010404-435006-708421
2026-09-07T
01:04:36+0000
0.759 km
远距离
3.63075E-5 中风险 0.66
CDM_260905-074504-005706-708421
VELOX 1 (40057)
2026-09-05T
07:45:56+0000
1.123 km
极远距离
1.690191E-5 中风险 0.6
CDM_260902-034506-174306-708425
OBJECT J (61743)
2026-09-02T
03:45:44+0000
1.216 km
极远距离
1.358726E-5 中风险 0.58
CDM_260905-060904-005706-708421
VELOX 1 (40057)
2026-09-05T
06:09:47+0000
1.824 km
极远距离
3.438898E-6 低风险 0.46
CDM_260905-092204-005706-708421
VELOX 1 (40057)
2026-09-05T
09:22:06+0000
2.902 km
极远距离
1.316676E-6 低风险 0.37